Theta_e
307 309 310 310 309 310 310 313 314 313 314 312 312 313 313 313 311 311 312 313 312 312 312 313 315 319 329 338 340 339 344 347 347 346 348 349 350 350 349 350 350 349 346 335
311 312 312 311 310 313 314 315 314 313 314 314 313 313 313 314 312 311 312 312 312 312 312 314 315 318 324 333 339 342 344 346 347 347 342 337 340 338 335 330 325 323 323 323
312 314 313 313 314 314 314 314 314 315 315 314 313 314 314 314 313 312 311 311 312 312 312 316 319 319 323 325 331 337 340 343 337 329 325 325 324 324 323 321 320 320 320 320
312 312 313 314 315 313 314 313 314 315 314 314 313 315 313 313 313 315 313 312 313 312 312 312 319 320 321 324 325 325 324 323 323 323 321 320 320 320 320 319 319 320 320 321
313 315 315 315 314 313 315 314 314 315 312 313 313 313 313 313 316 315 314 315 314 314 313 312 315 320 320 321 323 323 321 320 320 320 320 320 320 319 319 319 319 319 320 321
312 314 315 315 314 314 314 311 309 309 309 312 312 312 312 313 315 316 316 316 314 313 312 311 313 316 317 319 320 319 320 321 321 321 320 319 318 318 319 319 319 319 322 322
315 315 315 315 317 317 310 310 311 314 313 314 312 314 313 315 319 318 317 314 313 312 311 311 312 312 315 317 318 319 322 321 321 320 320 319 319 319 318 318 318 319 321 323
316 316 316 319 319 318 315 310 312 316 314 313 316 316 319 319 317 313 312 312 311 309 308 309 309 309 310 311 312 317 317 316 315 317 319 321 320 319 319 319 318 319 319 321
317 318 321 320 319 317 319 319 313 314 315 316 316 317 318 319 318 316 315 313 310 309 307 306 307 307 309 310 310 310 311 311 312 314 315 315 315 316 316 317 318 320 321 322
315 319 320 322 320 318 319 315 320 315 323 323 318 320 316 320 318 315 313 312 310 309 309 309 309 309 310 310 310 311 311 311 310 310 311 311 311 313 314 317 320 321 322 322
314 316 319 318 319 319 318 319 318 316 315 319 320 319 317 318 316 313 312 310 309 308 308 307 307 308 308 308 308 308 307 307 307 307 307 307 307 307 307 308 309 310 314 319
317 316 319 319 316 316 317 320 318 321 321 314 313 317 316 311 311 310 310 310 309 308 307 306 306 306 307 306 306 306 306 307 307 307 307 307 306 306 306 306 306 306 306 307
319 318 321 318 317 315 320 321 320 318 317 321 322 320 314 312 310 309 309 309 308 308 306 306 304 304 305 305 305 305 306 306 306 305 304 304 304 305 305 305 305 305 305 306
317 316 318 319 316 315 320 320 319 318 321 321 322 323 319 314 312 310 309 309 307 306 306 305 304 303 304 304 304 304 304 304 303 303 303 303 303 303 303 303 304 304 304 305
310 315 317 317 317 318 317 317 317 319 317 319 318 321 319 316 311 309 308 308 307 306 305 305 304 303 303 303 303 303 303 302 302 301 301 300 300 300 301 302 302 303 303 304
308 315 315 315 313 312 314 313 313 314 315 318 318 317 313 310 308 309 308 308 307 305 305 304 304 303 303 302 302 302 301 300 299 299 298 298 298 299 299 299 299 300 300 302
310 311 310 312 311 312 311 310 310 313 315 314 315 314 311 311 309 308 307 307 305 304 304 303 302 302 302 301 300 299 299 298 298 298 298 298 298 298 298 298 299 299 299 300
310 308 306 310 309 314 308 314 314 315 314 312 312 311 310 309 307 305 305 305 304 302 302 301 301 301 300 298 298 297 297 297 297 297 297 297 297 297 298 297 298 299 299 300
308 306 310 307 308 309 318 318 319 318 316 312 311 310 308 305 304 304 304 303 301 300 300 301 300 298 297 297 297 296 296 296 296 296 296 296 297 297 297 297 297 298 299 298
309 306 306 312 308 312 311 317 316 316 319 311 309 308 306 305 306 304 302 300 299 299 299 299 299 296 296 295 295 295 295 295 295 295 296 296 296 296 297 297 297 297 297 297
314 314 315 314 310 311 310 315 313 316 312 310 307 306 306 305 303 301 299 299 299 298 297 296 294 294 293 294 294 294 294 295 295 295 295 295 296 297 297 297 297 297 297 298
316 315 316 315 315 310 313 313 315 308 308 305 305 303 301 300 300 299 298 297 296 295 294 294 293 293 293 293 293 294 294 294 294 294 295 296 296 297 298 298 297 297 297 298
319 314 310 309 309 310 313 311 308 306 304 302 300 300 300 299 298 297 297 296 295 294 293 293 293 293 293 293 293 293 293 293 294 294 295 296 297 298 299 298 298 298 299 299
316 315 317 310 311 314 313 305 302 301 300 300 299 298 297 296 296 296 295 294 294 293 293 292 292 292 292 292 292 292 293 293 294 295 296 297 297 299 299 299 300 300 300 301
308 315 313 315 314 314 308 305 302 301 299 298 297 297 296 296 296 295 294 294 293 292 292 292 291 291 291 291 291 292 292 293 294 295 296 298 299 300 300 300 300 301 302 302
305 308 309 308 309 306 304 301 300 299 298 298 297 297 296 295 295 294 294 293 292 292 291 291 291 291 291 291 291 291 291 292 293 294 297 300 300 300 300 300 301 302 302 304
Wind_Speed
4 5 7 11 11 9 5 4 4 5 5 5 13 17 18 16 6 10 14 16 14 13 11 13 11 21 22 22 25 27 26 26 27 27 27 24 25 21 19 18 14 10 7 6
3 7 10 10 6 5 4 4 4 5 4 6 8 12 9 6 6 9 17 17 13 7 5 6 15 21 28 31 31 31 29 29 31 31 27 21 20 14 13 10 7 5 6 7
7 5 5 6 5 5 5 5 4 5 3 1 4 5 5 1 5 6 8 6 5 7 3 5 7 24 32 34 34 32 29 27 25 23 20 19 16 15 12 12 10 9 6 5
5 4 7 5 5 7 5 8 6 4 4 3 1 3 5 5 7 4 5 1 5 6 5 6 9 14 27 32 32 29 27 25 21 18 16 17 13 10 10 11 9 8 8 7
6 2 2 3 7 9 9 7 8 5 6 5 1 4 6 4 5 3 6 5 7 7 7 6 10 18 15 18 23 19 19 19 16 15 12 12 11 9 9 10 10 11 11 11
7 3 3 4 2 4 1 4 6 4 4 2 5 6 5 4 2 5 4 8 7 6 7 5 2 13 14 18 16 14 14 15 17 18 17 17 15 14 14 16 16 15 16 16
2 4 4 3 2 2 5 6 3 3 2 4 2 3 6 3 1 3 4 5 6 5 3 5 7 8 16 15 15 17 20 21 20 19 20 21 20 19 20 19 20 20 21 21
6 4 6 3 4 5 2 5 5 6 4 2 3 3 2 5 6 3 6 5 8 9 8 8 8 11 13 12 8 2 3 9 8 12 16 17 18 19 21 23 25 24 23 23
4 2 2 1 4 5 3 3 3 7 4 3 2 3 5 4 5 8 9 10 9 9 9 9 10 18 20 19 14 9 9 10 10 10 12 12 13 16 20 24 25 26 27 25
6 3 1 1 2 5 3 5 4 3 4 3 3 3 4 4 5 5 8 8 8 8 9 9 9 16 22 23 21 22 20 18 16 16 16 15 14 12 12 14 17 18 22 23
4 4 3 2 3 4 2 2 6 5 3 5 3 5 3 3 2 6 6 6 7 7 7 7 7 16 19 20 19 18 18 18 19 19 18 18 19 20 20 18 17 16 17 20
2 4 3 2 4 2 2 3 5 5 4 2 3 4 1 6 6 5 6 6 5 6 6 6 7 13 16 19 21 20 20 19 18 19 21 26 29 31 31 31 29 27 28 27
5 2 3 5 5 5 2 2 4 5 3 6 6 4 3 6 6 4 5 5 4 4 5 4 5 7 13 18 20 19 17 20 21 29 32 34 34 34 35 36 38 39 37 37
4 3 4 6 3 3 3 3 2 4 3 4 5 3 5 4 5 2 3 3 3 4 5 5 5 5 12 17 18 19 25 24 27 26 25 26 29 30 31 32 33 32 33 32
4 4 2 2 3 2 2 3 4 4 4 6 4 7 8 3 7 4 1 1 2 5 6 6 6 6 11 14 17 19 21 23 24 24 26 27 28 29 29 29 29 30 31 32
4 3 2 2 4 3 3 6 6 7 5 6 6 7 4 4 5 3 3 3 3 5 6 6 5 5 10 17 20 23 23 24 24 25 26 26 27 26 26 29 29 29 30 29
3 5 3 2 3 4 5 6 6 3 2 4 7 6 3 2 4 3 5 4 5 7 7 8 7 9 17 19 22 23 26 25 24 23 25 26 26 26 26 27 29 29 30 30
4 4 2 2 2 2 3 5 4 10 4 4 4 3 3 3 5 8 5 3 5 8 11 9 13 17 20 26 25 25 24 25 24 25 25 25 25 25 26 26 27 27 28 28
3 4 3 3 2 4 2 2 2 1 3 2 3 2 2 4 5 4 3 4 4 7 8 15 18 19 27 24 24 26 25 24 23 24 25 25 25 26 27 27 27 27 26 25
5 6 4 2 3 3 3 2 4 1 2 1 2 2 4 5 5 3 6 9 9 11 16 17 21 26 23 25 25 24 24 23 23 24 25 26 26 27 27 27 27 26 25 28
3 2 3 2 1 5 2 3 2 4 3 1 2 2 2 2 4 6 8 8 10 13 18 20 22 20 23 23 24 23 24 23 25 26 27 27 27 27 27 27 25 25 25 25
4 5 3 3 2 5 3 2 1 2 2 4 2 2 4 5 7 7 9 9 12 16 20 20 21 21 23 23 22 22 22 25 25 26 25 26 27 26 24 23 24 24 23 23
3 4 4 6 3 3 3 4 3 4 4 3 3 4 4 5 5 10 13 15 15 19 20 20 20 22 21 20 20 21 25 25 25 25 25 25 26 26 22 21 24 22 20 20
3 2 2 3 1 4 4 8 5 7 6 5 5 4 5 9 11 13 14 14 12 17 18 21 20 18 20 22 21 21 23 24 24 24 24 25 24 25 23 22 20 19 18 17
3 4 4 1 2 5 8 8 8 7 6 6 6 5 7 11 12 11 12 12 14 18 18 18 17 18 20 21 22 22 22 22 22 24 24 23 21 21 20 19 21 20 22 21
3 5 4 4 4 5 4 6 5 7 6 5 5 8 11 10 11 12 11 15 16 16 18 17 17 18 20 21 21 22 22 23 23 22 21 21 20 20 18 18 21 24 20 18
Wind_Direction
239 146 198 215 194 208 204 213 188 204 163 129 199 210 220 235 212 227 227 234 242 240 256 238 198 189 185 186 185 187 188 192 189 188 184 193 202 208 216 229 235 239 238 252
100 238 225 211 204 191 201 219 245 276 223 161 183 218 218 191 232 216 225 224 222 236 208 186 171 176 188 188 190 189 191 189 193 194 187 183 176 167 156 151 168 218 255 275
172 211 183 191 182 186 215 186 212 206 29 274 98 334 310 209 241 242 232 203 195 237 228 192 192 192 194 194 190 186 186 183 180 178 167 150 150 150 157 171 195 214 232 261
216 241 195 185 222 174 230 209 212 186 101 223 115 235 291 275 292 285 23 277 245 234 237 201 196 198 203 202 192 184 175 173 175 171 167 166 170 169 186 192 200 214 238 244
237 210 191 168 210 169 227 195 202 195 160 130 267 101 264 310 272 316 319 328 323 321 313 254 213 211 198 196 188 181 174 170 168 169 181 188 196 205 198 211 222 233 235 242
210 237 224 224 163 207 205 94 46 68 118 165 203 147 265 202 249 301 325 340 339 331 315 313 179 158 149 172 169 168 174 176 182 191 198 209 217 214 212 223 229 238 236 238
182 224 261 177 150 319 80 69 13 4 2 215 317 122 210 255 275 235 288 354 359 10 12 87 98 99 122 144 166 177 185 194 199 208 216 224 227 225 227 233 236 235 233 230
167 243 189 182 168 181 59 138 152 190 178 233 2 263 285 346 332 52 74 70 45 34 35 37 46 53 54 43 36 352 299 284 295 272 266 263 257 268 254 248 245 241 245 249
149 240 22 146 151 131 194 69 158 100 16 72 256 296 355 352 21 43 34 42 35 37 31 29 36 47 51 49 36 9 344 350 352 330 317 309 302 296 285 276 275 271 259 248
197 163 15 253 122 36 110 153 68 20 132 201 289 274 206 193 43 30 26 33 40 49 53 51 50 56 60 57 55 53 51 44 31 24 20 14 6 352 337 316 301 285 272 270
126 120 266 42 26 155 46 88 53 106 112 154 163 254 291 112 97 97 57 53 66 55 43 37 36 45 44 38 29 22 14 2 355 349 344 337 330 325 321 320 318 311 300 286
352 121 141 113 308 260 88 168 140 131 198 110 140 266 332 103 100 97 101 88 71 76 50 36 28 18 18 10 3 359 356 351 347 341 334 326 320 316 313 309 305 302 297 293
197 328 62 355 3 12 90 128 118 106 97 189 161 245 167 110 88 65 121 105 77 58 47 20 19 356 350 351 351 347 347 340 329 325 321 317 313 310 307 305 303 300 297 293
97 86 149 185 164 158 138 122 124 114 140 191 212 242 210 149 151 129 111 113 72 30 2 343 338 323 333 341 344 338 328 326 322 319 312 306 304 302 299 298 296 293 291 286
85 121 120 124 106 114 213 228 196 186 189 179 211 217 240 211 186 148 342 144 16 347 343 329 315 311 324 332 327 322 317 315 314 309 305 301 300 299 298 297 295 293 289 284
19 115 90 66 55 62 240 235 225 231 228 243 235 251 240 127 113 23 320 256 309 322 309 299 297 319 326 321 319 317 313 311 310 305 301 301 301 299 296 294 292 291 287 285
81 127 104 222 355 326 289 239 219 159 93 208 215 245 154 56 359 316 293 274 332 315 311 323 328 320 319 320 317 311 308 308 304 300 300 298 297 295 294 294 291 288 284 282
121 102 82 138 6 212 229 330 147 119 89 84 88 84 71 11 305 290 261 175 323 324 336 330 322 320 322 317 313 309 309 307 305 304 301 300 297 295 294 296 295 293 294 289
101 115 105 123 183 298 91 108 99 95 165 15 100 58 38 338 311 319 94 34 325 334 319 311 313 321 315 311 314 310 306 305 302 299 298 298 299 298 295 292 293 293 290 290
65 77 105 137 127 201 222 99 10 74 254 93 101 3 350 12 355 269 1 345 321 308 306 302 315 314 308 308 309 307 304 304 299 299 298 298 296 293 290 288 288 288 289 289
123 85 157 159 276 288 254 305 303 124 216 44 86 13 360 267 225 305 325 316 303 307 319 327 317 313 309 309 308 303 303 297 300 301 301 299 296 291 288 288 287 291 291 288
150 151 161 145 186 288 339 33 103 184 56 89 66 33 328 304 299 297 302 307 322 323 322 320 312 310 309 307 307 300 298 303 305 303 301 299 299 298 294 294 293 289 285 284
151 160 175 174 201 204 19 76 54 121 103 49 69 9 339 309 308 316 323 323 322 320 317 314 309 307 309 307 307 301 302 308 308 307 305 303 302 300 291 291 285 285 283 277
87 138 109 86 192 156 112 75 66 73 89 71 54 15 356 334 333 327 325 322 319 319 317 314 313 310 311 314 311 306 309 313 311 307 306 306 303 300 299 297 292 279 275 275
203 129 151 185 83 97 62 92 104 84 75 59 39 13 351 343 331 322 319 321 319 316 315 316 311 312 311 317 318 317 317 318 316 313 306 301 303 302 297 300 294 289 285 272
191 172 151 216 188 115 107 119 115 89 71 55 34 4 0 340 327 325 325 322 313 318 321 319 319 318 320 322 320 322 325 325 316 310 309 310 311 308 306 300 304 311 303 298